Dewpoint
0 1 -0 0 0 -0 -0 -1 -1 -0 -2 -2 -2 -3 -3 -3 -3 -1 -0 -1 -1 -0 0 1 -0 -2 -2 -2 -1 -2 -1 -1 -0 -0 1 0 -0 1 1 2 4 4 5 4 6 6 4 3 4 8 4 3 3 2
0 -0 -1 -0 -0 0 1 0 0 1 0 -0 -0 -2 -3 -2 -2 -1 -0 -1 -1 -0 -0 1 0 -2 -3 -3 -3 -2 -2 -1 -1 0 -0 -1 -0 -1 1 3 1 3 2 3 3 3 1 -1 2 -1 3 4 3 2
-1 -1 0 -0 -0 -1 -1 -1 -0 -0 0 -0 -0 0 -2 -2 -2 -1 -1 -1 -1 -1 -1 -1 -1 1 -0 -2 -4 -2 -1 -2 -1 -1 0 0 0 -0 0 0 -1 -1 1 3 4 1 1 -2 -3 -0 2 2 0 2
-1 -1 0 -0 -1 -2 -2 -2 -1 -1 -0 -0 -0 0 -0 -0 -1 -0 -0 -0 -0 -1 -0 -1 -4 -0 1 -0 -3 -3 -3 -2 -1 -0 1 0 1 -0 -0 -1 -0 -1 -1 0 0 -1 0 1 -0 -0 -1 -0 0 1
-0 0 -1 -2 -1 -0 -0 -1 -2 -2 -1 -0 0 -0 -0 -0 0 -0 -0 -0 -1 -4 -1 -3 -2 -4 -1 1 -0 -1 -1 -0 1 2 2 1 1 2 1 1 2 3 3 4 2 3 4 1 -1 -3 -3 -1 0 0
-0 -1 -1 -1 -1 -1 0 -1 -1 -1 -0 -1 -0 0 0 0 0 -1 -0 -1 -0 -3 -1 1 -2 -2 -1 -0 1 -0 -1 -1 1 3 2 2 2 3 1 1 2 2 2 3 3 3 3 4 2 1 -1 -3 0 1
-0 -0 -1 -1 -0 1 -0 -1 -1 -1 -0 -0 -1 -0 0 0 0 -0 -1 -1 -0 -0 -0 0 2 3 2 1 1 2 0 -1 1 2 2 2 2 2 2 3 1 0 1 2 2 3 3 3 3 2 2 2 2 1
-0 -1 -2 -1 -1 -0 0 -1 -0 -0 -1 -1 -1 -0 0 0 0 -0 -3 -1 -1 -0 -0 1 2 2 2 1 1 1 1 1 1 1 1 1 2 2 3 -2 -1 -0 -0 1 1 2 3 3 2 2 2 2 2 2
-1 0 -2 0 -0 -0 0 0 0 0 -0 -0 0 -0 -0 0 0 -1 -0 -0 -1 -0 0 -1 0 2 1 1 1 1 1 1 0 -0 0 1 2 -1 -3 -3 -2 -2 -2 -1 0 1 2 2 2 2 2 2 1 0
-0 -0 -1 -1 -0 0 -0 -0 -0 -0 -0 -0 -1 -2 -0 1 -1 0 0 -0 0 0 -3 -2 -1 1 0 1 -1 -1 -0 -1 2 1 1 -1 -1 -3 -4 -3 -4 -4 -4 -3 -2 -0 -1 -0 0 1 0 -0 -1 -1
-0 -0 -0 -0 -0 -0 -0 -1 -0 -0 -1 -0 -0 -1 0 0 0 -0 -1 -1 -1 -1 -2 -0 -2 -2 -1 -1 0 -0 1 -2 -1 -0 1 -1 -3 -4 -5 -5 -5 -5 -4 -4 -3 -3 -3 -3 -3 -1 -1 -1 -2 -3
-1 -0 -0 -0 -0 -0 0 0 -0 -1 -2 -1 -0 0 0 -1 -2 -1 -1 -2 -1 1 -1 -2 -0 -1 -0 -0 -1 1 2 1 2 -1 -2 -4 -5 -5 -6 -6 -7 -7 -6 -6 -5 -5 -5 -4 -4 -5 -5 -5 -6 -6
-1 -1 -1 -0 0 -0 -0 -1 -1 -2 -0 -2 -4 -5 -6 -6 -6 -5 -2 -3 -3 -2 -3 -2 1 -0 -0 -0 -1 1 1 2 -2 -4 -6 -6 -6 -6 -7 -7 -8 -8 -7 -7 -7 -7 -7 -7 -7 -7 -7 -7 -7 -7
-1 -1 -2 -3 -1 -1 -2 -2 -4 -5 -6 -8 -7 -8 -8 -8 -6 -6 -5 -5 -4 -4 -4 -3 -1 0 -0 -0 0 1 -3 -3 -3 -6 -7 -7 -7 -7 -8 -8 -9 -9 -9 -9 -9 -8 -9 -9 -9 -9 -9 -8 -8 -8
-1 -1 -2 -2 -5 -2 -2 -4 -7 -8 -11 -9 -9 -8 -8 -8 -8 -7 -7 -5 -5 -5 -4 -2 -1 -1 -3 -3 -4 -5 -5 -6 -7 -8 -8 -8 -8 -8 -9 -9 -9 -10 -10 -10 -10 -10 -10 -10 -10 -10 -10 -9 -9 -9
-1 -2 -2 -6 -3 -8 -7 -7 -8 -11 -10 -10 -10 -10 -9 -11 -10 -9 -8 -7 -6 -5 -3 -3 -2 -2 -4 -5 -7 -6 -8 -7 -8 -9 -10 -9 -9 -9 -9 -10 -10 -10 -10 -10 -10 -10 -10 -10 -10 -10 -9 -10 -10 -10
-1 -4 -5 -7 -6 -5 -9 -10 -12 -10 -9 -8 -9 -9 -9 -9 -9 -9 -8 -8 -6 -5 -4 -5 -6 -5 -7 -6 -7 -8 -9 -10 -10 -11 -11 -11 -11 -11 -11 -10 -10 -10 -11 -11 -11 -11 -11 -11 -10 -10 -11 -11 -11 -11
-1 -2 -2 -5 -7 -10 -11 -11 -11 -9 -8 -9 -10 -9 -10 -10 -10 -9 -11 -11 -7 -8 -9 -8 -12 -10 -10 -9 -9 -10 -12 -12 -12 -12 -12 -11 -11 -10 -10 -10 -10 -10 -11 -11 -11 -11 -11 -11 -12 -12 -12 -12 -12 -12
-2 -2 -2 -4 -8 -8 -9 -10 -12 -9 -9 -10 -10 -11 -11 -11 -11 -12 -13 -14 -15 -15 -14 -13 -12 -11 -11 -11 -11 -11 -12 -12 -12 -12 -12 -11 -11 -11 -11 -11 -11 -10 -11 -11 -11 -11 -11 -12 -12 -12 -12 -12 -13 -13
-2 -3 -3 -5 -6 -6 -6 -6 -9 -9 -8 -10 -10 -10 -11 -11 -12 -13 -14 -13 -14 -14 -13 -13 -13 -12 -12 -11 -11 -12 -12 -12 -12 -13 -13 -13 -12 -12 -11 -11 -12 -12 -12 -12 -12 -12 -12 -13 -13 -13 -13 -14 -15 -15
-5 -6 -6 -7 -6 -4 -4 -5 -8 -8 -8 -9 -11 -12 -12 -14 -13 -13 -13 -15 -14 -11 -12 -12 -12 -12 -11 -11 -11 -11 -12 -12 -12 -13 -14 -14 -13 -13 -13 -13 -12 -12 -12 -13 -13 -13 -14 -15 -16 -17 -18 -19 -19 -19
-8 -9 -9 -8 -7 -7 -7 -7 -6 -7 -8 -8 -7 -9 -10 -11 -13 -14 -14 -13 -12 -12 -12 -12 -12 -12 -12 -12 -12 -12 -12 -12 -13 -13 -14 -13 -13 -13 -14 -14 -13 -14 -17 -19 -19 -19 -19 -19 -20 -21 -22 -23 -23 -23
-11 -9 -9 -8 -8 -7 -6 -6 -6 -5 -8 -7 -9 -9 -11 -11 -14 -15 -12 -12 -12 -12 -12 -12 -13 -13 -13 -13 -13 -13 -13 -13 -13 -13 -14 -14 -15 -16 -18 -19 -20 -21 -21 -21 -21 -20 -20 -19 -19 -22 -22 -23 -24 -25
-10 -8 -6 -6 -7 -7 -7 -7 -8 -9 -9 -9 -9 -9 -10 -12 -15 -14 -12 -12 -12 -13 -13 -13 -13 -14 -13 -13 -14 -14 -15 -17 -19 -19 -18 -19 -20 -19 -20 -21 -21 -21 -21 -21 -23 -24 -22 -21 -21 -23 -23 -24 -25 -26
-10 -8 -8 -11 -8 -10 -11 -12 -11 -10 -11 -11 -11 -10 -12 -13 -14 -14 -14 -13 -12 -12 -13 -14 -14 -14 -15 -15 -15 -14 -14 -14 -16 -17 -17 -18 -20 -21 -21 -21 -21 -21 -20 -22 -23 -24 -25 -25 -25 -27 -28 -27 -27 -28
-9 -8 -9 -10 -10 -10 -11 -11 -12 -12 -14 -12 -12 -11 -14 -17 -17 -15 -13 -13 -13 -13 -13 -14 -15 -15 -16 -16 -18 -20 -22 -21 -18 -18 -18 -17 -17 -18 -20 -24 -23 -22 -23 -23 -23 -25 -26 -26 -26 -27 -28 -27 -27 -26
-12 -11 -9 -10 -9 -10 -12 -11 -11 -13 -14 -13 -14 -18 -19 -19 -19 -14 -13 -13 -13 -13 -14 -15 -16 -17 -20 -20 -25 -28 -27 -26 -26 -27 -27 -25 -25 -26 -26 -27 -25 -27 -29 -27 -26 -28 -28 -29 -30 -30 -29 -28 -27 -27
-11 -12 -14 -13 -13 -13 -17 -18 -18 -16 -15 -12 -15 -19 -19 -19 -15 -13 -14 -13 -14 -14 -14 -15 -16 -18 -19 -20 -22 -21 -22 -22 -21 -21 -21 -23 -27 -28 -28 -28 -28 -29 -31 -30 -31 -31 -31 -31 -30 -30 -29 -29 -29 -28
-12 -13 -16 -18 -14 -13 -13 -17 -15 -13 -13 -13 -20 -19 -14 -14 -14 -14 -14 -14 -14 -14 -14 -15 -16 -17 -20 -23 -26 -27 -25 -21 -21 -20 -20 -20 -21 -27 -28 -28 -28 -28 -28 -27 -29 -30 -30 -29 -27 -27 -27 -27 -27 -27
-12 -15 -15 -15 -17 -16 -14 -15 -15 -14 -15 -15 -15 -15 -15 -15 -15 -15 -16 -16 -16 -16 -16 -17 -18 -17 -17 -19 -23 -26 -28 -27 -26 -23 -22 -21 -23 -28 -28 -29 -28 -28 -28 -29 -29 -29 -30 -29 -29 -28 -28 -27 -27 -27
-14 -15 -14 -14 -15 -14 -15 -16 -16 -16 -16 -16 -16 -16 -15 -15 -15 -15 -15 -15 -15 -16 -16 -16 -16 -17 -17 -19 -23 -25 -26 -26 -28 -29 -29 -29 -29 -29 -29 -28 -28 -28 -28 -28 -28 -28 -28 -28 -28 -27 -27 -27 -27 -27
-14 -14 -15 -15 -13 -13 -13 -13 -15 -15 -15 -16 -16 -16 -16 -16 -16 -16 -16 -16 -15 -15 -16 -16 -17 -17 -18 -20 -27 -30 -29 -28 -28 -29 -29 -29 -28 -28 -28 -28 -28 -28 -28 -28 -28 -27 -27 -27 -27 -26 -26 -26 -26 -26
-14 -14 -14 -13 -13 -13 -12 -12 -12 -13 -13 -14 -14 -14 -14 -16 -16 -16 -16 -16 -16 -16 -16 -16 -16 -17 -19 -28 -30 -29 -28 -28 -28 -28 -28 -28 -27 -27 -27 -27 -27 -27 -27 -27 -27 -27 -27 -27 -27 -27 -27 -27 -27 -27
Wind_Speed
33 30 29 26 29 30 33 35 33 33 34 34 34 35 35 37 37 41 30 44 28 5 5 13 30 17 21 26 6 9 5 5 3 6 4 4 3 5 6 5 7 7 7 4 3 3 7 1 6 4 9 8 6 11
23 17 19 18 15 15 20 29 32 34 38 38 36 37 39 40 40 40 25 36 32 17 5 2 25 24 36 39 26 19 11 7 11 3 2 1 2 1 4 3 3 4 5 4 7 6 5 8 8 10 18 23 6 16
15 20 18 16 17 16 15 19 21 20 31 35 38 38 40 40 39 41 36 31 32 13 13 23 17 25 22 32 34 14 11 9 6 4 4 2 4 3 3 5 5 4 5 5 2 8 13 26 24 23 24 27 14 18
14 20 17 18 14 12 12 14 21 25 30 31 31 35 42 41 42 41 40 35 31 11 3 6 15 24 15 25 37 35 14 15 8 4 2 2 2 4 4 4 5 6 4 8 13 14 14 21 22 23 20 17 15 13
15 15 18 14 14 11 11 10 17 21 29 33 37 36 33 40 40 42 35 37 38 22 6 7 3 25 21 17 26 28 23 12 4 2 2 2 3 1 2 1 2 3 0 2 4 9 9 21 22 11 12 14 17 13
13 16 19 17 17 15 10 7 5 18 28 34 33 35 36 33 41 40 11 36 38 31 2 1 15 20 23 22 18 18 12 5 8 5 2 3 6 2 3 5 3 5 4 5 7 26 33 24 20 11 14 17 12 9
13 16 19 19 20 19 20 19 23 19 31 32 35 33 34 41 40 27 10 17 41 30 5 2 3 8 23 24 16 14 17 9 5 7 7 6 8 17 1 0 8 10 13 7 17 23 7 17 13 14 9 4 1 2
18 21 21 21 25 26 25 27 32 33 35 36 34 35 45 43 34 12 3 18 45 17 4 3 2 5 12 6 4 5 5 8 5 6 2 3 2 2 1 6 9 11 14 8 14 15 10 10 4 6 5 5 6 6
17 23 24 28 27 31 37 35 40 44 56 53 49 44 36 24 11 15 19 38 34 10 4 2 2 3 7 6 6 5 5 2 4 2 2 4 2 3 5 9 10 13 12 15 15 13 11 11 12 11 11 9 7 8
23 23 26 24 29 29 35 34 35 38 39 39 34 14 5 12 39 34 16 9 8 6 5 2 2 3 6 3 2 3 1 3 3 5 6 3 3 8 13 9 9 10 11 11 12 10 14 13 12 12 12 9 7 6
17 19 21 23 23 22 17 13 13 15 19 7 6 8 33 27 13 5 3 3 1 3 5 4 3 3 4 3 4 3 2 1 2 3 3 2 2 4 12 12 12 10 8 8 4 5 6 6 6 5 7 7 6 6
19 21 19 10 8 12 11 8 8 8 13 16 15 17 8 4 3 4 2 2 4 2 4 2 2 4 4 4 3 4 2 3 4 3 4 2 3 11 12 12 13 11 7 7 7 6 6 6 7 7 9 10 10 11
19 17 17 16 14 15 13 18 20 16 7 6 5 6 7 8 10 5 3 3 3 2 7 6 2 3 3 2 2 2 4 1 4 4 3 2 9 10 9 8 9 9 10 12 13 14 13 14 13 14 16 15 15 18
15 14 13 12 10 8 8 6 9 7 3 9 7 7 4 5 4 3 3 2 3 4 9 3 1 1 2 2 1 1 3 4 4 3 2 3 9 9 10 10 11 13 16 18 21 21 22 23 24 23 23 23 25 29
13 9 8 8 8 6 3 1 8 7 9 8 7 5 4 4 7 5 11 1 8 12 5 2 4 5 4 4 4 3 4 5 4 2 2 8 10 12 13 13 16 18 20 24 25 28 29 30 31 32 31 31 32 32
8 13 13 12 6 7 7 2 6 12 8 7 10 5 9 3 7 13 16 11 16 11 4 6 3 3 4 3 4 5 3 3 2 3 9 12 14 15 16 18 21 24 26 27 28 29 30 32 32 32 32 31 31 30
7 15 17 17 10 5 6 7 10 10 8 6 4 17 6 4 4 9 14 17 13 7 3 3 5 5 3 3 3 4 3 3 10 15 16 15 16 17 17 19 21 23 26 27 28 28 28 28 28 30 33 30 29 28
10 12 13 8 6 21 27 14 9 9 9 11 5 13 16 15 14 13 15 18 6 5 5 4 5 6 4 3 3 3 9 17 17 17 16 15 15 16 17 19 20 21 22 22 23 24 24 25 27 27 25 24 24 22
6 8 12 10 11 8 7 9 9 6 11 6 12 10 11 14 18 14 12 16 21 15 10 6 5 3 2 4 7 12 14 16 16 16 15 14 15 16 17 17 18 18 19 19 19 20 20 20 20 18 18 16 19 18
13 14 10 8 7 6 7 7 7 9 5 6 10 19 14 11 15 22 23 22 19 9 9 5 3 3 3 13 13 15 16 16 17 18 16 13 12 13 14 15 16 16 17 17 18 17 17 17 16 14 13 14 14 15
10 11 13 21 23 13 8 6 8 9 11 7 11 12 11 24 28 22 19 20 17 8 5 9 15 14 14 14 12 12 11 10 9 13 14 14 12 12 12 12 12 12 12 13 13 13 12 14 13 10 8 10 10 9
6 7 8 9 8 8 11 11 13 13 8 8 5 5 5 5 9 17 16 15 9 14 10 15 13 14 14 13 12 10 10 11 12 13 12 12 12 11 10 9 7 9 10 11 10 10 11 11 9 8 8 9 8 8
4 4 5 5 7 6 5 5 5 4 4 2 4 4 5 4 6 7 7 9 8 15 16 18 18 16 17 14 13 12 10 9 11 10 9 9 9 8 8 8 8 7 8 9 7 6 7 8 7 7 8 8 8 10
5 5 6 5 7 3 5 4 5 5 5 3 3 3 3 4 6 8 4 4 7 9 9 9 9 11 11 10 11 11 10 7 8 9 7 5 6 8 6 7 7 8 8 6 5 5 6 5 5 5 6 6 8 8
4 8 5 6 6 5 5 4 4 4 4 3 3 3 1 4 3 3 2 2 11 11 5 5 6 6 9 9 8 7 6 3 3 5 7 6 5 5 4 4 4 5 7 4 5 5 5 5 3 3 3 4 4 6
6 9 5 2 2 4 1 3 3 3 3 3 2 4 4 3 4 2 2 11 13 10 7 3 3 6 7 7 8 6 6 5 2 2 4 3 2 2 1 1 1 2 3 4 5 4 4 5 4 3 2 4 4 4
5 4 7 7 6 9 6 9 8 5 4 3 0 3 3 4 2 2 9 11 10 10 8 4 1 3 7 8 6 5 5 5 3 3 4 3 1 1 1 1 1 0 1 2 2 2 2 2 2 3 3 3 3 4
5 7 5 8 10 10 5 4 3 2 1 2 5 4 4 6 3 7 7 10 9 9 8 6 5 6 6 6 5 4 4 4 4 5 4 4 5 4 3 2 2 1 1 0 1 1 1 2 2 3 4 4 5 6
7 5 7 6 7 9 8 3 2 3 2 2 4 2 3 4 7 12 15 10 7 6 6 6 6 5 4 2 1 1 1 0 1 3 4 5 6 4 2 1 0 1 2 3 3 3 3 4 5 5 5 6 8 9
5 6 7 6 5 4 9 7 8 9 9 11 11 17 21 19 15 12 11 9 6 6 7 6 7 5 1 3 3 2 2 3 5 5 6 6 7 5 3 2 2 2 2 2 4 5 6 5 6 8 9 9 10 11
5 5 7 7 6 12 20 21 20 18 18 17 22 23 15 11 11 7 6 3 3 4 3 4 5 3 0 3 4 4 4 4 5 5 4 4 4 4 3 2 2 3 5 5 5 6 7 8 9 10 11 12 12 13
6 6 7 5 5 11 6 5 6 7 6 6 7 7 7 4 4 10 11 9 6 3 2 2 1 1 2 5 5 5 5 5 4 4 4 4 4 4 4 4 4 5 6 6 6 6 6 7 8 9 10 11 12 13
19 21 15 9 5 5 3 4 5 5 5 4 3 3 3 2 4 9 10 9 8 4 3 3 2 2 4 4 4 5 5 4 4 5 5 5 5 5 5 6 5 5 6 7 7 7 8 9 9 10 11 12 13 14
Wind_Direction
318 320 311 300 277 264 255 248 247 238 233 227 223 219 215 211 207 206 207 211 212 190 147 199 195 182 187 182 168 184 146 202 134 181 176 210 188 227 195 175 167 172 167 189 171 211 284 174 15 61 303 336 51 40
326 328 322 316 312 292 258 242 242 242 232 223 221 217 213 212 208 207 209 216 217 213 220 241 203 206 207 202 190 170 188 170 175 162 195 147 215 45 173 219 211 193 184 182 191 214 253 242 203 169 266 280 330 349
337 331 329 324 312 290 271 251 240 229 220 219 216 215 211 207 204 206 201 189 193 200 228 252 246 212 210 219 216 183 212 195 181 199 162 207 223 125 161 216 211 269 181 218 102 260 253 270 270 247 253 260 249 263
329 334 332 332 328 311 284 258 239 227 220 211 206 206 208 205 207 202 197 188 185 172 216 265 252 220 205 218 220 218 216 209 222 211 143 173 199 187 205 214 181 209 172 232 252 269 273 267 269 267 263 255 249 252
347 357 356 356 351 356 345 268 240 227 215 208 205 198 195 199 201 198 195 191 197 181 189 230 237 218 229 205 197 203 202 185 132 95 112 238 234 256 263 29 200 24 64 125 262 319 313 272 243 249 264 265 242 241
28 24 23 29 24 12 20 18 311 218 199 194 188 189 185 178 184 161 147 184 179 194 291 191 213 222 210 201 194 191 197 188 186 133 189 210 273 186 232 192 66 41 351 353 307 316 293 287 289 332 302 294 248 245
42 37 41 42 43 48 58 70 69 100 162 163 169 171 178 172 177 160 168 179 178 181 195 256 187 157 189 189 201 210 220 208 198 176 199 210 219 184 190 178 5 348 329 336 357 337 301 9 336 354 14 27 57 243
62 62 60 62 60 61 64 87 91 99 121 140 148 151 158 163 163 162 187 174 174 169 167 255 142 92 138 123 117 151 151 183 218 226 225 192 205 115 127 5 353 349 338 335 314 347 343 352 2 35 28 16 357 342
81 81 75 75 75 68 91 105 106 111 116 121 129 130 128 128 105 128 125 157 167 161 182 221 136 109 137 106 119 136 155 144 212 206 248 143 65 64 8 347 358 350 341 320 321 314 346 17 12 27 25 30 27 18
107 91 89 86 83 100 102 80 61 118 122 115 115 108 80 111 126 127 134 147 171 188 210 97 104 98 134 80 59 106 182 187 189 227 137 73 83 76 18 358 349 333 326 329 344 338 344 352 4 11 26 23 24 32
104 98 101 103 97 97 95 76 53 81 67 80 79 79 120 122 121 64 116 116 95 32 34 54 85 124 132 125 157 205 163 182 179 236 118 97 82 10 4 5 5 355 354 343 330 307 320 333 353 9 20 21 34 57
80 78 80 95 103 95 96 104 68 48 83 83 100 107 117 100 117 91 53 39 54 66 7 37 57 104 123 135 110 164 199 182 217 63 75 71 30 18 12 6 7 15 22 28 27 33 25 27 33 48 69 72 85 97
56 59 61 79 87 108 75 94 102 104 94 80 54 53 20 356 43 48 37 25 60 34 356 10 86 99 98 95 97 183 216 234 76 50 70 40 13 17 19 22 33 43 60 69 72 73 72 77 81 81 87 91 97 99
46 46 50 66 93 112 81 54 29 43 71 53 44 40 60 10 43 14 346 359 2 352 336 328 74 87 79 101 333 272 24 44 65 65 71 357 24 46 45 52 64 68 76 85 86 87 88 88 88 90 93 98 102 103
12 22 37 66 73 126 132 178 357 23 56 60 41 47 48 350 17 347 3 17 356 345 0 150 96 69 27 59 19 39 52 59 48 59 59 15 61 65 67 79 86 88 90 89 93 95 95 96 96 95 96 99 99 100
22 47 39 33 85 98 103 80 27 70 61 59 45 23 352 34 347 5 4 359 2 359 50 40 62 73 53 36 46 22 65 55 44 39 35 62 71 81 85 89 90 90 89 91 93 97 99 99 98 100 99 95 94 94
50 88 67 49 73 92 97 88 50 54 57 53 41 30 32 37 342 346 353 337 356 19 42 43 49 27 62 49 55 27 32 46 52 59 70 82 88 89 96 96 96 99 99 101 101 99 99 102 102 95 91 91 93 93
35 59 68 64 80 67 62 54 74 64 62 37 58 25 47 42 17 23 16 19 52 64 53 56 53 40 36 42 43 86 89 93 94 93 92 94 98 100 101 99 101 104 104 102 102 104 103 99 93 94 98 99 98 98
24 52 53 63 75 75 62 47 59 86 53 67 43 46 50 41 48 53 52 54 76 89 90 63 58 43 50 42 112 117 127 121 112 105 102 104 108 109 111 111 109 107 106 105 104 97 94 92 94 95 93 93 94 94
79 61 56 69 95 85 85 73 74 85 80 114 64 56 59 44 42 52 55 50 64 66 51 53 47 33 59 93 132 132 129 128 124 112 101 102 110 119 115 114 111 112 110 107 103 99 96 93 88 86 89 92 94 92
89 91 83 75 61 76 88 102 75 111 123 108 119 88 80 51 44 39 37 51 53 40 62 74 80 97 110 117 122 130 132 141 128 126 119 109 107 106 103 100 104 104 100 96 94 93 93 91 90 88 86 83 80 84
82 96 73 51 63 66 57 65 105 118 104 136 158 72 64 38 22 29 43 43 61 36 71 91 98 104 102 100 107 113 117 121 118 118 117 119 112 103 97 93 98 94 93 90 91 94 93 87 81 77 72 77 77 84
90 62 60 56 81 80 92 107 83 86 97 99 69 57 42 52 34 29 62 44 70 86 101 104 105 105 102 103 105 104 105 112 111 109 109 108 105 101 101 100 94 93 97 90 84 92 95 93 85 75 75 80 82 90
84 60 43 53 64 98 96 56 64 66 73 60 66 64 60 84 59 57 57 45 111 109 105 113 114 109 108 110 105 104 100 102 113 113 103 102 110 105 96 92 90 89 79 81 87 95 112 112 92 80 72 70 71 69
81 13 32 27 57 75 63 39 27 59 71 51 73 46 42 86 75 78 114 112 150 156 133 137 146 138 130 125 126 128 121 125 123 119 117 98 76 80 85 84 83 78 67 37 77 89 97 102 109 83 78 75 63 51
75 24 56 83 24 90 120 86 78 117 102 65 81 88 72 74 70 100 127 157 157 160 153 138 141 145 139 128 131 133 141 144 166 203 148 134 117 47 31 30 71 88 98 83 63 75 100 103 93 75 43 33 28 14
67 19 53 46 96 96 82 76 77 80 75 103 127 61 75 73 170 146 152 161 158 157 154 131 94 151 146 145 137 117 103 106 139 115 93 89 91 17 9 11 261 307 58 100 80 79 76 68 54 35 38 26 352 348
69 39 83 13 64 48 97 63 61 84 124 79 83 55 117 159 162 154 163 154 154 152 150 135 118 123 126 120 101 82 89 95 97 81 60 50 42 37 34 25 355 2 30 93 195 208 255 297 319 325 327 323 326 328
58 78 89 42 58 54 43 78 114 74 55 87 109 120 101 91 132 142 142 145 153 174 177 167 150 141 135 105 37 350 24 124 352 7 5 0 1 5 351 31 45 298 300 279 279 286 290 293 300 308 315 317 319 319
65 41 91 62 62 51 26 49 89 95 100 104 104 106 99 105 115 127 128 126 125 147 156 154 152 139 101 32 24 7 347 334 328 318 324 322 319 325 313 308 331 312 288 272 274 284 294 298 296 303 310 313 315 317
86 85 75 62 78 110 101 96 94 93 90 92 110 109 113 119 130 143 162 184 141 127 139 161 168 176 357 4 358 346 335 322 315 303 299 301 311 324 328 325 311 293 290 294 295 294 299 303 303 301 301 304 307 309
44 72 113 102 125 147 73 71 69 70 60 59 67 91 104 112 134 165 168 180 205 224 202 169 160 73 354 340 334 329 322 316 310 300 299 301 309 322 325 314 302 299 298 301 301 299 301 302 304 302 300 301 305 308
88 91 98 96 110 156 119 104 81 86 69 72 78 74 78 116 145 181 195 205 197 172 147 180 219 306 337 337 323 319 317 314 312 312 309 308 307 308 318 321 314 304 300 300 304 307 310 311 311 309 310 311 313 315
Height
1290 1283 1277 1272 1270 1270 1273 1276 1280 1285 1291 1298 1305 1313 1321 1329 1337 1344 1350 1358 1364 1368 1370 1372 1377 1379 1390 1395 1402 1406 1414 1414 1419 1425 1426 1423 1429 1413 1409 1408 1414 1418 1421 1426 1421 1421 1418 1389 1387 1392 1396 1380 1376 1370
1283 1278 1273 1268 1264 1261 1259 1264 1267 1271 1278 1286 1294 1303 1313 1322 1332 1341 1348 1352 1362 1368 1369 1371 1372 1376 1382 1386 1393 1397 1396 1398 1401 1409 1412 1412 1416 1416 1407 1412 1399 1408 1405 1410 1411 1400 1384 1382 1379 1376 1387 1382 1375 1371
1280 1275 1269 1264 1259 1255 1254 1255 1257 1259 1266 1275 1283 1293 1304 1315 1325 1334 1345 1348 1358 1363 1368 1370 1367 1372 1377 1381 1386 1390 1392 1392 1393 1395 1398 1401 1404 1403 1413 1408 1399 1396 1393 1397 1401 1385 1381 1375 1373 1373 1372 1374 1368 1372
1278 1272 1266 1260 1255 1251 1248 1246 1248 1252 1258 1266 1275 1285 1296 1308 1320 1331 1337 1343 1354 1360 1364 1360 1360 1368 1372 1375 1379 1384 1387 1389 1391 1394 1397 1401 1403 1393 1400 1394 1396 1392 1390 1389 1387 1381 1378 1374 1371 1367 1367 1368 1367 1365
1276 1271 1265 1259 1254 1248 1243 1240 1240 1242 1248 1257 1268 1279 1290 1302 1314 1326 1334 1337 1348 1359 1358 1357 1356 1363 1368 1371 1375 1380 1383 1386 1389 1393 1396 1399 1395 1396 1393 1392 1391 1391 1394 1395 1393 1385 1382 1369 1365 1363 1365 1364 1363 1363
1278 1273 1267 1261 1255 1248 1242 1237 1231 1229 1237 1251 1263 1275 1288 1299 1309 1318 1332 1338 1345 1354 1357 1356 1357 1357 1362 1368 1373 1377 1380 1383 1388 1392 1395 1392 1393 1392 1396 1390 1394 1394 1393 1391 1390 1383 1378 1372 1368 1365 1363 1361 1362 1361
1281 1277 1272 1266 1259 1252 1246 1240 1235 1227 1235 1251 1265 1277 1288 1298 1308 1318 1325 1328 1341 1354 1357 1357 1352 1353 1359 1365 1371 1376 1377 1379 1384 1389 1389 1389 1386 1386 1388 1387 1394 1392 1391 1388 1386 1384 1374 1366 1366 1364 1361 1361 1361 1359
1287 1283 1278 1273 1268 1261 1255 1251 1249 1247 1252 1261 1272 1281 1292 1303 1317 1324 1325 1326 1338 1351 1355 1351 1344 1350 1356 1361 1369 1373 1376 1380 1382 1383 1382 1381 1380 1380 1386 1394 1392 1391 1388 1381 1386 1384 1379 1374 1369 1365 1363 1360 1359 1360
1293 1289 1286 1282 1279 1275 1269 1265 1266 1267 1270 1276 1283 1293 1300 1310 1318 1326 1329 1336 1343 1350 1350 1348 1346 1349 1357 1362 1367 1373 1375 1380 1380 1379 1377 1378 1381 1393 1397 1395 1391 1390 1389 1388 1383 1382 1379 1374 1371 1367 1364 1364 1364 1362
1298 1297 1295 1292 1291 1287 1285 1283 1284 1285 1288 1291 1297 1302 1309 1313 1323 1329 1338 1339 1344 1346 1347 1347 1349 1352 1358 1362 1368 1372 1373 1376 1376 1374 1373 1381 1392 1397 1398 1397 1393 1391 1389 1387 1384 1382 1379 1376 1372 1367 1364 1366 1366 1365
1305 1304 1302 1301 1300 1299 1298 1296 1296 1298 1298 1301 1304 1309 1316 1322 1327 1330 1334 1338 1341 1343 1344 1348 1350 1354 1359 1364 1366 1369 1370 1373 1379 1370 1371 1383 1394 1398 1398 1396 1393 1390 1388 1386 1384 1381 1379 1377 1375 1370 1367 1369 1369 1367
1310 1309 1308 1308 1306 1305 1305 1305 1304 1306 1307 1308 1310 1317 1320 1326 1329 1333 1339 1342 1343 1349 1352 1353 1354 1355 1358 1360 1363 1367 1367 1368 1362 1368 1379 1394 1401 1400 1397 1395 1392 1390 1388 1385 1382 1379 1378 1375 1372 1371 1368 1371 1371 1370
1315 1313 1312 1311 1311 1311 1311 1311 1311 1312 1312 1314 1315 1319 1324 1334 1342 1347 1348 1351 1355 1356 1358 1356 1356 1357 1359 1361 1363 1364 1362 1359 1367 1380 1399 1405 1404 1402 1400 1398 1395 1393 1389 1385 1384 1379 1378 1377 1376 1374 1374 1376 1375 1374
1320 1318 1317 1316 1315 1315 1314 1314 1314 1313 1313 1318 1326 1344 1350 1360 1360 1361 1359 1358 1358 1358 1357 1357 1356 1357 1360 1362 1362 1360 1372 1370 1381 1397 1408 1409 1407 1404 1401 1398 1395 1394 1391 1390 1385 1382 1383 1382 1381 1382 1381 1381 1381 1380
1324 1322 1320 1319 1318 1318 1318 1317 1315 1314 1319 1332 1343 1361 1365 1367 1365 1363 1361 1359 1359 1356 1356 1356 1357 1361 1365 1368 1373 1375 1380 1397 1402 1410 1410 1410 1408 1406 1405 1404 1401 1399 1396 1393 1392 1391 1391 1390 1390 1390 1390 1391 1389 1389
1326 1324 1322 1321 1320 1320 1320 1320 1319 1320 1337 1350 1363 1369 1369 1368 1367 1363 1361 1360 1359 1357 1356 1357 1359 1366 1376 1381 1384 1391 1396 1406 1413 1414 1415 1413 1412 1410 1410 1408 1406 1405 1403 1401 1399 1400 1399 1398 1398 1399 1396 1396 1396 1395
1326 1326 1326 1324 1321 1321 1321 1321 1326 1340 1355 1367 1378 1377 1375 1375 1375 1372 1368 1365 1361 1360 1363 1367 1376 1383 1387 1390 1399 1407 1415 1418 1419 1419 1418 1416 1415 1414 1414 1412 1410 1408 1406 1407 1408 1408 1408 1408 1406 1402 1400 1403 1403 1406
1328 1328 1328 1327 1325 1324 1324 1330 1343 1359 1373 1380 1381 1383 1381 1379 1378 1375 1372 1365 1364 1366 1373 1384 1390 1399 1409 1410 1415 1422 1422 1422 1422 1422 1422 1422 1421 1420 1419 1418 1417 1418 1418 1416 1415 1414 1414 1413 1410 1410 1411 1411 1411 1415
1329 1329 1329 1328 1327 1328 1336 1348 1354 1372 1384 1386 1387 1386 1384 1384 1383 1380 1377 1374 1372 1373 1380 1393 1407 1415 1419 1420 1422 1423 1423 1423 1424 1425 1425 1425 1425 1424 1424 1424 1423 1422 1421 1421 1421 1420 1419 1418 1418 1418 1418 1418 1418 1420
1330 1331 1331 1330 1331 1333 1345 1358 1364 1374 1385 1393 1392 1391 1390 1390 1388 1384 1381 1378 1377 1381 1395 1411 1421 1423 1422 1422 1423 1424 1425 1426 1426 1426 1428 1428 1429 1428 1427 1426 1425 1425 1425 1426 1424 1424 1424 1423 1423 1424 1424 1424 1424 1425
1333 1334 1334 1333 1333 1336 1350 1361 1370 1379 1387 1392 1393 1393 1396 1395 1391 1390 1389 1388 1387 1405 1418 1424 1425 1425 1425 1425 1426 1427 1428 1428 1428 1429 1431 1432 1432 1431 1431 1430 1430 1430 1429 1429 1428 1428 1429 1429 1430 1430 1429 1428 1428 1429
1335 1336 1336 1336 1339 1348 1360 1365 1370 1378 1385 1391 1393 1395 1397 1400 1401 1402 1405 1404 1418 1427 1427 1429 1429 1429 1429 1430 1431 1431 1432 1432 1433 1433 1434 1434 1434 1434 1434 1434 1434 1433 1433 1433 1433 1433 1433 1433 1433 1433 1432 1432 1432 1432
1337 1338 1339 1342 1347 1360 1374 1373 1375 1380 1386 1392 1395 1399 1405 1408 1411 1412 1417 1426 1434 1436 1435 1434 1433 1434 1433 1435 1435 1436 1437 1437 1437 1437 1438 1438 1438 1438 1438 1438 1438 1437 1437 1436 1437 1436 1436 1437 1437 1436 1436 1436 1435 1435
1339 1341 1344 1348 1355 1368 1372 1375 1379 1383 1388 1394 1399 1406 1409 1413 1417 1423 1433 1437 1440 1439 1439 1439 1439 1439 1439 1440 1440 1440 1441 1442 1441 1441 1442 1442 1442 1441 1441 1441 1441 1441 1440 1440 1440 1439 1440 1439 1440 1439 1439 1438 1438 1438
1344 1355 1355 1360 1364 1369 1378 1385 1388 1391 1402 1403 1408 1412 1414 1416 1426 1435 1440 1441 1441 1442 1442 1442 1442 1443 1443 1443 1444 1444 1445 1445 1445 1445 1444 1445 1444 1444 1443 1443 1443 1443 1442 1442 1442 1442 1441 1441 1441 1441 1441 1440 1440 1439
1357 1363 1364 1367 1371 1374 1382 1391 1394 1399 1403 1408 1410 1412 1415 1423 1436 1440 1438 1439 1441 1442 1443 1444 1444 1444 1445 1446 1446 1446 1446 1446 1446 1446 1445 1445 1445 1445 1444 1444 1444 1444 1444 1443 1443 1443 1443 1443 1443 1442 1441 1440 1439 1439
1367 1370 1370 1372 1373 1376 1385 1390 1394 1398 1407 1411 1413 1417 1423 1440 1444 1437 1438 1440 1441 1443 1444 1445 1445 1445 1445 1446 1446 1447 1446 1446 1446 1446 1445 1445 1445 1444 1444 1444 1444 1444 1443 1443 1443 1443 1443 1443 1443 1442 1442 1441 1440 1439
1370 1372 1376 1379 1380 1383 1391 1399 1404 1409 1409 1410 1413 1426 1433 1435 1435 1436 1437 1440 1442 1443 1444 1445 1446 1446 1446 1447 1447 1447 1447 1447 1447 1447 1446 1446 1445 1444 1444 1444 1444 1444 1444 1444 1444 1444 1443 1443 1443 1442 1441 1440 1439 1438
1375 1378 1379 1387 1388 1394 1401 1405 1407 1409 1410 1410 1416 1425 1428 1430 1433 1435 1438 1440 1442 1444 1445 1446 1446 1447 1448 1448 1448 1448 1448 1448 1448 1448 1447 1446 1446 1446 1444 1444 1444 1444 1444 1444 1444 1444 1443 1443 1442 1441 1440 1439 1438 1436
1380 1381 1385 1393 1400 1408 1410 1408 1409 1410 1410 1411 1415 1423 1429 1434 1437 1439 1441 1442 1443 1444 1445 1446 1447 1448 1449 1449 1448 1448 1448 1448 1448 1448 1447 1446 1446 1445 1444 1444 1444 1444 1444 1443 1443 1443 1442 1441 1441 1439 1439 1437 1436 1434
1382 1385 1391 1400 1409 1415 1415 1415 1415 1415 1414 1418 1421 1424 1430 1437 1441 1442 1444 1445 1445 1446 1446 1447 1448 1449 1449 1449 1449 1448 1448 1448 1448 1447 1446 1446 1445 1444 1444 1443 1443 1443 1442 1442 1442 1441 1440 1439 1438 1437 1436 1435 1433 1432
1386 1389 1395 1406 1414 1417 1417 1418 1420 1423 1426 1428 1431 1433 1436 1438 1440 1442 1443 1445 1445 1446 1447 1447 1448 1449 1449 1448 1448 1448 1447 1447 1447 1446 1446 1445 1445 1444 1443 1443 1442 1441 1441 1440 1440 1439 1439 1438 1436 1435 1434 1432 1431 1429
1396 1397 1400 1405 1412 1415 1418 1418 1422 1428 1431 1433 1435 1436 1438 1439 1440 1442 1442 1443 1445 1446 1447 1448 1448 1448 1448 1448 1447 1447 1447 1446 1446 1445 1445 1444 1444 1443 1442 1442 1441 1440 1440 1439 1438 1437 1436 1435 1434 1432 1431 1429 1428 1426